EW0609 Weather Reports


time (UTC)temp
F
wind
direction
speed
knots
gust
knots
rain 1hr
in
rain 24hr
in
rain mn
in
humidity
%
barometer
mb
20260506171232 53 44 2.6 13.0 0.00 0.00 0.00 62 1016.8
20260506171117 52 106 6.1 13.0 0.00 0.00 0.00 62 1016.9
20260506170621 52 97 3.5 12.2 0.00 0.00 0.00 61 1016.8
20260506165731 52 300 0.9 9.6 0.00 0.00 0.00 62 1016.9
20260506165231 51 97 4.3 9.6 0.00 0.00 0.00 62 1016.6
20260506165119 51 121 4.3 8.7 0.00 0.00 0.00 63 1016.7
20260506164234 51 86 4.3 9.6 0.00 0.00 0.00 63 1016.9
20260506163732 51 109 5.2 10.4 0.00 0.00 0.00 64 1016.8
20260506163232 50 94 3.5 10.4 0.00 0.00 0.00 64 1016.8
20260506162732 50 35 0.9 7.8 0.00 0.00 0.00 65 1016.8
20260506162617 50 125 5.2 8.7 0.00 0.00 0.00 64 1016.8
20260506161731 51 134 4.3 8.7 0.00 0.00 0.00 64 1016.7
20260506161234 51 131 1.7 9.6 0.00 0.00 0.00 64 1016.5
20260506160730 50 109 5.2 9.6 0.00 0.00 0.00 62 1016.4
20260506160231 50 130 0.9 8.7 0.00 0.00 0.00 65 1016.3
20260506155903 49 121 5.2 9.6 0.00 0.00 0.00 65 1016.2
20260506155857 49 123 2.6 9.6 0.00 0.00 0.00 65 1016.3
20260506155817 49 124 6.1 8.7 0.00 0.00 0.00 64 1016.4
20260506154625 49 85 5.2 8.7 0.00 0.00 0.00 66 1016.2
20260506153732 48 75 5.2 8.7 0.00 0.00 0.00 66 1016.3
20260506153230 48 97 4.3 6.1 0.00 0.00 0.00 65 1016.3
20260506153121 48 47 2.6 7.8 0.00 0.00 0.00 66 1016.3
20260506152232 48 92 0.9 7.8 0.00 0.00 0.00 66 1016.1
20260506151733 48 97 3.5 7.8 0.00 0.00 0.00 66 1016.2
20260506151232 47 69 0.0 6.1 0.00 0.00 0.00 67 1016.2
20260506150732 47 180 3.5 7.8 0.00 0.00 0.00 67 1016.2
20260506150622 47 104 0.9 9.6 0.00 0.00 0.00 68 1016.1
20260506145730 47 116 3.5 9.6 0.00 0.00 0.00 68 1016.1
20260506145624 46 130 3.5 7.8 0.00 0.00 0.00 68 1016.1
20260506145116 46 103 3.5 8.7 0.00 0.00 0.00 68 1016.1
20260506144231 46 140 3.5 9.6 0.00 0.00 0.00 69 1015.9
20260506143731 46 120 6.1 10.4 0.00 0.00 0.00 68 1015.7
20260506143230 46 134 5.2 10.4 0.00 0.00 0.00 68 1015.7
20260506142731 46 111 3.5 9.6 0.00 0.00 0.00 68 1015.7
20260506142231 46 92 6.1 9.6 0.00 0.00 0.00 68 1015.6
20260506141733 46 103 4.3 9.6 0.00 0.00 0.00 69 1015.6
20260506141232 46 110 3.5 12.2 0.00 0.00 0.00 69 1015.4
20260506140733 45 110 6.1 12.2 0.00 0.00 0.00 69 1015.3
20260506140231 45 134 5.2 13.0 0.00 0.00 0.00 70 1015.3
20260506140127 45 89 7.8 14.8 0.00 0.00 0.00 70 1015.1
20260506135624 44 114 9.6 14.8 0.00 0.00 0.00 70 1015.1
20260506134731 44 120 10.4 13.9 0.00 0.00 0.00 70 1015.1
20260506134231 44 78 7.0 13.9 0.00 0.00 0.00 70 1015.1
20260506133732 44 83 6.1 13.9 0.00 0.00 0.00 71 1015.2
20260506133231 44 118 7.0 11.3 0.00 0.00 0.00 71 1015.3
20260506132731 44 90 4.3 12.2 0.00 0.00 0.00 71 1015.5
20260506132232 44 85 5.2 12.2 0.00 0.00 0.00 72 1015.5
20260506131731 44 128 6.1 11.3 0.00 0.00 0.00 71 1015.3
20260506131231 44 94 7.0 12.2 0.00 0.00 0.00 72 1015.5
20260506130731 43 99 6.1 13.0 0.00 0.00 0.00 72 1015.6
20260506130618 43 118 7.8 13.0 0.00 0.00 0.00 71 1015.9
20260506125732 43 100 7.0 13.0 0.00 0.00 0.00 71 1015.9
20260506125233 44 75 3.5 10.4 0.00 0.00 0.00 71 1015.6
20260506124732 43 127 4.3 10.4 0.00 0.00 0.00 72 1015.7
20260506124231 43 82 2.6 10.4 0.00 0.00 0.00 73 1015.8
20260506123731 43 104 6.1 10.4 0.00 0.00 0.00 72 1015.5
20260506123232 43 86 4.3 10.4 0.00 0.00 0.00 73 1015.6
20260506123119 42 93 2.6 7.8 0.00 0.00 0.00 73 1015.8
20260506122231 42 97 2.6 7.8 0.00 0.00 0.00 73 1015.9
20260506121731 42 117 3.5 9.6 0.00 0.00 0.00 73 1015.6
20260506121233 42 124 4.3 9.6 0.00 0.00 0.00 73 1015.5
20260506120731 42 140 3.5 10.4 0.00 0.00 0.00 73 1015.5
20260506120232 42 103 7.0 12.2 0.00 0.00 0.00 73 1015.4
20260506115734 42 96 7.8 14.8 0.00 0.00 0.00 73 1015.3
20260506115234 42 110 6.1 14.8 0.00 0.00 0.00 74 1015.3
20260506114731 42 94 6.1 14.8 0.00 0.00 0.00 75 1015.1
20260506114231 42 117 7.0 14.8 0.00 0.00 0.00 75 1014.9
20260506113732 42 90 7.0 11.3 0.00 0.00 0.00 77 1014.9
20260506113622 42 104 4.3 10.4 0.00 0.00 0.00 79 1014.7
20260506112731 42 92 4.3 11.3 0.00 0.00 0.00 80 1014.7
20260506112231 42 94 6.1 12.2 0.00 0.00 0.00 81 1014.8
20260506111736 41 104 6.1 12.2 0.00 0.00 0.00 82 1014.8
20260506111231 41 107 7.0 15.6 0.00 0.00 0.00 83 1014.6
20260506110734 41 83 6.1 15.6 0.00 0.00 0.00 83 1014.6
20260506110232 42 114 7.8 13.0 0.00 0.00 0.00 83 1014.6
20260506110125 42 120 7.0 12.2 0.00 0.00 0.00 82 1014.7
20260506105232 42 100 6.1 13.9 0.00 0.00 0.00 82 1014.7
20260506104731 42 161 7.8 13.9 0.00 0.00 0.00 81 1014.8
20260506104232 42 124 5.2 11.3 0.00 0.00 0.00 81 1014.8
20260506103731 42 110 3.5 12.2 0.00 0.00 0.00 82 1014.7
20260506103231 42 127 6.1 12.2 0.00 0.00 0.00 82 1014.6
20260506103126 42 83 6.1 12.2 0.00 0.00 0.00 83 1014.6
20260506102231 42 96 7.0 11.3 0.00 0.00 0.00 83 1014.6
20260506101731 43 90 3.5 8.7 0.00 0.00 0.00 82 1014.6
20260506101231 43 103 3.5 8.7 0.00 0.00 0.00 81 1014.6
20260506100731 44 76 1.7 8.7 0.00 0.00 0.00 80 1014.7
20260506100231 44 79 3.5 8.7 0.00 0.00 0.00 80 1014.4
20260506100134 44 0 1.7 6.1 0.00 0.00 0.00 80 1014.4
20260506095622 44 45 0.9 6.1 0.00 0.00 0.00 81 1014.2
20260506094732 44 27 1.7 9.6 0.00 0.00 0.00 81 1014.0
20260506094232 44 86 5.2 9.6 0.00 0.00 0.00 80 1013.9
20260506093734 44 92 3.5 13.9 0.00 0.00 0.00 81 1013.9
20260506093232 44 118 5.2 13.9 0.00 0.00 0.00 80 1013.7
20260506092732 45 116 6.1 12.2 0.00 0.00 0.00 79 1013.8
20260506092231 45 73 3.5 11.3 0.00 0.00 0.00 79 1013.5
20260506091731 45 87 1.7 11.3 0.00 0.00 0.00 79 1013.5
20260506091233 45 111 2.6 9.6 0.00 0.00 0.00 79 1013.5
20260506091120 45 100 4.3 8.7 0.00 0.00 0.00 79 1013.4
20260506090232 45 110 4.3 8.7 0.00 0.00 0.00 79 1013.4
20260506090134 45 131 1.7 8.7 0.00 0.00 0.00 78 1013.4
20260506085614 45 79 4.3 8.7 0.00 0.00 0.00 78 1013.5
20260506085130 45 104 3.5 7.8 0.00 0.00 0.00 77 1013.5
20260506084233 45 38 0.9 7.8 0.00 0.00 0.00 77 1013.6
20260506083730 45 48 1.7 8.7 0.00 0.00 0.00 77 1013.5
20260506083232 45 90 3.5 9.6 0.00 0.00 0.00 77 1013.4
20260506082732 45 110 1.7 9.6 0.00 0.00 0.00 77 1013.4
20260506082629 45 72 2.6 7.8 0.00 0.00 0.00 76 1013.3
20260506081731 45 28 1.7 8.7 0.00 0.00 0.00 76 1013.2
20260506081230 45 47 1.7 8.7 0.00 0.00 0.00 77 1013.2
20260506080731 45 65 2.6 8.7 0.00 0.00 0.00 76 1013.3
20260506080231 45 124 0.9 6.1 0.00 0.00 0.00 77 1013.3
20260506073231 44 86 3.5 7.8 0.00 0.00 0.00 77 1012.4
20260506073119 44 100 3.5 10.4 0.00 0.00 0.00 77 1012.4
20260506072552 44 94 5.2 10.4 0.00 0.00 0.00 77 1012.2
20260506072124 44 104 5.2 10.4 0.00 0.00 0.00 77 1012.4
20260506071230 44 106 2.6 7.8 0.00 0.00 0.00 76 1012.8
20260506071120 45 99 3.5 7.8 0.00 0.00 0.00 76 1012.9
20260506070231 45 124 0.9 6.1 0.00 0.00 0.00 76 1013.3
20260506062233 44 87 0.9 7.8 0.00 0.00 0.00 76 1013.3
20260506061731 44 86 0.9 7.8 0.00 0.00 0.00 76 1013.0
20260506061614 44 63 1.7 5.2 0.00 0.00 0.00 76 1013.0
20260506060732 44 93 1.7 5.2 0.00 0.00 0.00 76 1012.8
20260506060229 45 61 0.9 4.3 0.00 0.00 0.00 76 1012.8
20260506051122 46 135 7.0 14.8 0.00 0.00 0.00 73 1012.0
20260506050231 46 73 4.3 9.6 0.00 0.00 0.00 72 1012.0
20260506050116 46 138 5.2 11.3 0.00 0.00 0.00 72 1011.8
20260506044732 47 85 5.2 14.8 0.00 0.00 0.00 71 1011.7
20260506044229 47 103 7.8 14.8 0.00 0.00 0.00 70 1011.6
20260506043733 47 94 6.1 14.8 0.00 0.00 0.00 70 1011.7
20260506043230 47 116 7.0 14.8 0.00 0.00 0.00 69 1011.6
20260506042731 47 109 8.7 14.8 0.00 0.00 0.00 68 1011.5
20260506042627 47 110 5.2 12.2 0.00 0.00 0.00 68 1011.5
20260506041732 47 102 7.0 12.2 0.00 0.00 0.00 67 1011.5
20260506041230 48 114 7.0 13.9 0.00 0.00 0.00 67 1011.6
20260506040730 48 104 8.7 13.9 0.00 0.00 0.00 66 1011.7
20260506040231 48 96 3.5 13.9 0.00 0.00 0.00 66 1011.7
20260506035947 49 82 5.2 13.9 0.00 0.00 0.00 66 1011.6
20260506035231 49 140 5.2 13.0 0.00 0.00 0.00 65 1011.5
20260506034729 49 102 6.1 10.4 0.00 0.00 0.00 64 1011.4
20260506034231 49 118 4.3 13.0 0.00 0.00 0.00 64 1011.3
20260506033730 50 104 5.2 13.0 0.00 0.00 0.00 63 1011.1
20260506033230 50 47 2.6 10.4 0.00 0.00 0.00 62 1011.1
20260506032730 50 118 3.5 12.2 0.00 0.00 0.00 62 1011.1
20260506032232 51 111 4.3 12.2 0.00 0.00 0.00 61 1011.1
20260506031732 51 93 7.0 12.2 0.00 0.00 0.00 60 1011.1
20260506031231 51 125 5.2 10.4 0.00 0.00 0.00 60 1011.3
20260506030730 51 97 4.3 10.4 0.00 0.00 0.00 59 1010.8
20260506030230 51 102 5.2 9.6 0.00 0.00 0.00 58 1010.9
20260506025731 52 107 2.6 9.6 0.00 0.00 0.00 58 1010.8
20260506025230 52 106 0.9 6.1 0.00 0.00 0.00 58 1010.7
20260506024730 52 135 2.6 10.4 0.00 0.00 0.00 58 1010.8
20260506024232 52 100 3.5 10.4 0.00 0.00 0.00 57 1010.9
20260506023732 52 100 1.7 10.4 0.00 0.00 0.00 57 1010.7
20260506023614 53 78 3.5 10.4 0.00 0.00 0.00 56 1010.5
20260506022730 53 109 1.7 7.8 0.00 0.00 0.00 56 1010.5
20260506022231 53 68 1.7 9.6 0.00 0.00 0.00 56 1010.0
20260506021731 53 109 4.3 9.6 0.00 0.00 0.00 56 1010.0
20260506021231 53 69 3.5 8.7 0.00 0.00 0.00 55 1010.0
20260506020731 53 118 3.5 6.1 0.00 0.00 0.00 55 1009.9
20260506020231 54 24 2.6 7.8 0.00 0.00 0.00 56 1010.3
20260506015730 54 24 2.6 8.7 0.00 0.00 0.00 56 1009.8
20260506015230 55 32 2.6 8.7 0.00 0.00 0.00 53 1010.1
20260506014730 55 73 1.7 6.1 0.00 0.00 0.00 53 1010.3
20260506014230 55 44 1.7 6.1 0.00 0.00 0.00 53 1010.0
20260506014115 56 16 2.6 8.7 0.00 0.00 0.00 52 1010.0
20260506013230 56 66 2.6 11.3 0.00 0.00 0.00 52 1010.1
20260506012731 56 10 3.5 11.3 0.00 0.00 0.00 52 1009.9
20260506012508 57 0 1.7 10.4 0.00 0.00 0.00 51 1009.8
20260506012358 56 17 3.5 7.8 0.00 0.00 0.00 51 1009.8
20260506011620 57 30 3.5 10.4 0.00 0.00 0.00 51 1009.5
20260506011120 57 24 1.7 4.3 0.00 0.00 0.00 51 1009.4
20260506010231 57 52 1.7 7.8 0.00 0.00 0.00 51 1009.4
20260506005731 57 55 1.7 7.8 0.00 0.00 0.00 50 1009.3
20260506005230 58 117 1.7 12.2 0.00 0.00 0.00 50 1009.3
20260506004730 58 0 1.7 12.2 0.00 0.00 0.00 49 1009.1
20260506004612 59 79 3.5 12.2 0.00 0.00 0.00 49 1008.8
20260506003730 59 82 1.7 9.6 0.00 0.00 0.00 49 1008.8
20260506003230 59 39 0.9 5.2 0.00 0.00 0.00 49 1008.8
20260506002731 59 85 1.7 7.8 0.00 0.00 0.00 48 1008.8
20260506002230 59 86 2.6 7.8 0.00 0.00 0.00 48 1008.5
20260506001731 60 8 1.7 7.8 0.00 0.00 0.00 47 1008.7
20260506001230 60 83 1.7 8.7 0.00 0.00 0.00 47 1008.6
20260506000731 60 123 2.6 8.7 0.00 0.00 0.00 47 1008.5
20260506000232 60 56 4.3 11.3 0.00 0.00 0.00 47 1008.6
20260505235731 60 99 3.5 11.3 0.00 0.00 0.00 47 1008.6
20260505235231 60 52 1.7 7.8 0.00 0.00 0.00 46 1008.8
20260505234729 60 333 2.6 7.8 0.00 0.00 0.00 47 1008.7
20260505234231 61 86 1.7 8.7 0.00 0.00 0.00 47 1008.7
20260505233730 61 0 2.6 9.6 0.00 0.00 0.00 46 1008.6
20260505233230 61 123 5.2 9.6 0.00 0.00 0.00 46 1008.7
20260505232730 61 24 2.6 9.6 0.00 0.00 0.00 46 1008.7
20260505232231 61 55 4.3 9.6 0.00 0.00 0.00 45 1008.5
20260505231732 62 41 1.7 10.4 0.00 0.00 0.00 45 1008.6
20260505231230 62 83 2.6 10.4 0.00 0.00 0.00 46 1008.6
20260505230730 62 106 4.3 11.3 0.00 0.00 0.00 45 1008.7
20260505230233 62 109 3.5 11.3 0.00 0.00 0.00 45 1008.7
20260505230131 63 21 1.7 9.6 0.00 0.00 0.00 45 1008.8
20260505225611 63 109 4.3 9.6 0.00 0.00 0.00 44 1008.7
20260505224730 63 89 3.5 9.6 0.00 0.00 0.00 44 1008.8
20260505224230 63 118 1.7 9.6 0.00 0.00 0.00 46 1008.8
20260505224118 63 102 2.6 7.8 0.00 0.00 0.00 44 1008.8
20260505223230 62 106 1.7 8.7 0.00 0.00 0.00 45 1008.8
20260505223015 62 99 5.2 13.0 0.00 0.00 0.00 44 1009.1
20260505222902 62 38 1.7 13.0 0.00 0.00 0.00 45 1009.1
20260505221730 62 16 0.9 7.8 0.00 0.00 0.00 44 1009.0
20260505221231 62 31 1.7 7.8 0.00 0.00 0.00 44 1009.1
20260505221016 63 113 1.7 6.1 0.00 0.00 0.00 44 1009.1
20260505220903 63 55 0.9 7.8 0.00 0.00 0.00 44 1009.1
20260505215730 63 35 1.7 6.1 0.00 0.00 0.00 43 1009.0
20260505215231 63 59 2.6 8.7 0.00 0.00 0.00 44 1009.4
20260505214732 63 102 4.3 8.7 0.00 0.00 0.00 43 1009.5
20260505214621 64 168 3.5 8.7 0.00 0.00 0.00 42 1009.6
20260505213730 64 94 0.9 6.1 0.00 0.00 0.00 44 1009.8
20260505213618 63 25 1.7 6.1 0.00 0.00 0.00 43 1010.0
20260505212731 63 111 0.9 4.3 0.00 0.00 0.00 43 1009.9
20260505212230 63 30 0.9 4.3 0.00 0.00 0.00 45 1010.0
20260505211732 63 35 0.9 8.7 0.00 0.00 0.00 45 1010.3
20260505211231 62 259 2.6 8.7 0.00 0.00 0.00 44 1010.4
20260505210730 63 97 3.5 8.7 0.00 0.00 0.00 45 1010.3
20260505210230 62 0 0.0 8.7 0.00 0.00 0.00 45 1010.3
20260505205731 62 96 3.5 8.7 0.00 0.00 0.00 44 1010.3
20260505205615 62 59 2.6 5.2 0.00 0.00 0.00 44 1010.3
20260505204731 64 52 0.9 9.6 0.00 0.00 0.00 42 1010.5
20260505204232 64 23 1.7 10.4 0.00 0.00 0.00 43 1010.5
20260505203730 64 23 0.9 10.4 0.00 0.00 0.00 42 1010.5
20260505203231 65 17 1.7 7.8 0.00 0.00 0.00 42 1010.5
20260505202733 64 27 4.3 7.8 0.00 0.00 0.00 46 1010.5
20260505202232 64 65 3.5 7.8 0.00 0.00 0.00 44 1010.5
20260505201731 64 39 1.7 6.1 0.00 0.00 0.00 44 1010.9
20260505201613 63 37 2.6 6.1 0.00 0.00 0.00 44 1010.8
20260505200730 62 8 2.6 7.8 0.00 0.00 0.00 45 1010.8
20260505200230 62 345 3.5 7.8 0.00 0.00 0.00 44 1010.5
20260505195731 62 47 1.7 8.7 0.00 0.00 0.00 44 1010.6
20260505195232 63 31 1.7 8.7 0.00 0.00 0.00 43 1010.5
20260505194730 64 24 1.7 7.8 0.00 0.00 0.00 44 1010.5
20260505194232 64 78 2.6 9.6 0.00 0.00 0.00 45 1010.4
20260505193731 63 0 4.3 9.6 0.00 0.00 0.00 44 1010.6
20260505193230 63 0 1.7 8.7 0.00 0.00 0.00 43 1010.7
20260505192731 64 52 0.9 7.8 0.00 0.00 0.00 43 1010.7
20260505192229 63 52 1.7 7.8 0.00 0.00 0.00 44 1010.9
20260505191731 63 21 1.7 8.7 0.00 0.00 0.00 43 1010.8
20260505191231 64 54 1.7 8.7 0.00 0.00 0.00 42 1010.7
20260505191017 65 72 0.9 10.4 0.00 0.00 0.00 42 1010.6
20260505190902 65 25 1.7 7.8 0.00 0.00 0.00 43 1010.6
20260505185729 65 27 3.5 10.4 0.00 0.00 0.00 43 1010.6
20260505185230 64 13 1.7 10.4 0.00 0.00 0.00 44 1010.9
20260505184731 64 0 2.6 10.4 0.00 0.00 0.00 46 1011.0
20260505184230 64 0 3.5 13.0 0.00 0.00 0.00 41 1010.9
20260505183729 63 334 5.2 13.0 0.00 0.00 0.00 43 1010.8
20260505183230 63 0 5.2 10.4 0.00 0.00 0.00 43 1010.9
20260505182731 63 3 4.3 9.6 0.00 0.00 0.00 44 1010.6
20260505182230 63 25 4.3 13.0 0.00 0.00 0.00 44 1010.9
20260505182112 62 354 5.2 13.0 0.00 0.00 0.00 44 1010.9
20260505181229 62 8 4.3 9.6 0.00 0.00 0.00 44 1011.0
20260505180729 62 34 4.3 11.3 0.00 0.00 0.00 43 1011.4
20260505180228 62 14 3.5 11.3 0.00 0.00 0.00 45 1011.4
20260505175729 62 6 1.7 7.8 0.00 0.00 0.00 47 1011.3
20260505175229 60 28 1.7 10.4 0.00 0.00 0.00 46 1011.3
20260505174731 60 0 2.6 10.4 0.00 0.00 0.00 47 1011.3
20260505174228 61 25 3.5 9.6 0.00 0.00 0.00 47 1011.1
20260505173729 62 21 3.5 12.2 0.00 0.00 0.00 45 1011.1
20260505173230 62 0 5.2 13.9 0.00 0.00 0.00 46 1011.1
20260505172729 61 13 5.2 13.9 0.00 0.00 0.00 45 1011.3
20260505172229 62 354 5.2 13.9 0.00 0.00 0.00 48 1011.0
20260505171729 60 1 3.5 13.9 0.00 0.00 0.00 47 1011.0